[[{"header":{"parameterUnit":"m.s-1","parameterCategory":1,"la1":30.2991,"la2":30.254,"lo1":-89.0895,"lo2":-89.0444,"dy":0.0017,"dx":0.0017,"nx":28,"ny":28,"refTime":"2024-10-01T21:00:00:Z","depth":0,"parameterNumber":2,"parameterNumberName":"U-component_of_WINDS"},"data":[0,0,0,0,0,0,0,0,0,0,0,0,0,0,0,0,0,0,0,0,0,0,0,0,0,0,0,0,0,0,0,0,0,0,0,0,0,0,0,0,0,0,0,0,0,0,0,0,0,0,0,0,0,0,0,0,0,0,-3.1898,-3.1898,0,-3.1931,-3.1931,-3.1932,-3.1866,-3.1864,-3.1862,-3.186,-3.1893,-3.1895,-3.1898,0,0,0,0,0,0,0,0,0,0,0,0,0,-3.1777,-3.1779,-3.1898,-3.1898,-3.1899,-3.1931,-3.1931,-3.1932,-3.1867,-3.1864,-3.1861,-3.1859,-3.1892,-3.1895,-3.1898,0,0,0,0,0,0,0,0,0,0,0,0,0,-3.1822,-3.178,-3.1898,-3.187,-3.1868,-3.1931,-3.1931,-3.1932,-3.1867,-3.1864,-3.1861,-3.1858,-3.1891,-3.1895,-3.1899,-3.199,0,0,-3.1912,-3.1914,0,0,0,0,0,0,0,0,-3.1819,-3.1826,-3.1874,-3.1872,-3.187,-3.1891,-3.1901,-3.1951,-3.1868,-3.1867,-3.186,-3.1856,-3.1895,-3.1898,-3.1912,-3.1992,-3.1993,-3.1913,-3.1915,-3.1917,-3.1918,0,0,0,0,0,0,0,-3.1816,-3.1824,-3.1911,-3.1874,-3.1872,-3.1856,-3.1858,-3.191,-3.1899,-3.1867,-3.1863,-3.1867,-3.1893,-3.1908,-3.1912,-3.1993,-3.1912,-3.1916,-3.1919,-3.1921,-3.2152,-3.2155,0,0,0,0,0,0,-3.1817,-3.1822,-3.191,-3.1912,-3.1836,-3.186,-3.1864,-3.1888,-3.1898,-3.1896,-3.187,-3.1864,-3.1902,-3.1907,-3.1913,-3.2022,-3.1917,-3.1921,-3.1923,-3.2148,-3.2152,-3.2156,0,0,0,0,0,0,-3.1814,-3.1825,-3.1908,-3.1866,-3.1875,-3.1866,-3.1893,-3.189,-3.1905,-3.19,-3.1898,-3.1888,-3.19,-3.1907,-3.1972,-3.2022,-3.1923,-3.1927,-3.2144,-3.2149,-3.2154,-3.224,0,0,0,0,0,0,-3.1811,-3.1825,-3.1859,-3.1867,-3.1878,-3.1967,-3.1896,-3.1893,-3.1912,-3.1905,-3.1916,-3.1914,-3.1898,-3.1966,-3.1976,-3.2026,-3.193,-3.2139,-3.2146,-3.2153,-3.2232,-3.2247,-3.226,0,0,0,0,0,-3.1807,-3.1881,-3.1861,-3.1872,-3.1921,-3.197,-3.1976,-3.1956,-3.1917,-3.1952,-3.1949,-3.1914,-3.2015,-3.1973,-3.1984,-3.2036,-3.2136,-3.2144,-3.2152,-3.2226,-3.2244,-3.226,0,0,0,0,0,0,-3.1878,-3.1882,-3.186,-3.1939,-3.1955,-3.1959,-3.2002,-3.1976,-3.2003,-3.1995,-3.1968,-3.1971,-3.2042,-3.2045,-3.1999,-3.2126,-3.2069,-3.2079,-3.2121,-3.2138,-3.2152,-3.215,-3.1934,0,0,0,0,0,-3.1904,-3.1944,-3.1944,-3.2014,-3.2023,-3.2012,-3.2032,-3.2016,-3.2031,-3.2037,-3.2039,-3.2055,-3.2091,-3.2114,-3.2146,-3.2232,-3.2234,-3.2273,-3.2287,-3.2299,-3.2308,-3.2356,-3.2374,-3.2183,-3.2182,-3.2182,0,0,-3.1956,-3.1962,-3.1989,-3.2029,-3.2039,-3.2082,-3.2018,-3.2065,-3.2097,-3.2044,-3.2107,-3.2109,-3.2125,-3.2201,-3.2235,-3.2206,-3.2362,-3.2309,-3.2318,-3.2322,-3.2366,-3.2384,-3.24,-3.2188,-3.2187,-3.2186,0,0,-3.2073,-3.2081,-3.2141,-3.2154,-3.2171,-3.2163,-3.2177,-3.2186,-3.2186,-3.2248,-3.221,-3.2247,-3.2308,-3.2322,-3.2336,-3.246,-3.243,-3.2471,-3.2544,-3.259,-3.2605,-3.2619,-3.2664,-3.2681,-3.2481,-3.2481,-3.2481,0,-3.2135,-3.2198,-3.2175,-3.2226,-3.2245,-3.22,-3.2261,-3.2274,-3.2301,-3.2315,-3.2282,-3.2359,-3.2366,-3.2446,-3.2477,-3.249,-3.2506,-3.247,-3.2605,-3.2618,-3.263,-3.2674,-3.2691,-3.2486,-3.2486,-3.2485,-3.2485,0,-3.2275,-3.2319,-3.2365,-3.2394,-3.2418,-3.2473,-3.2459,-3.2486,-3.2467,-3.2462,-3.2527,-3.2535,-3.2568,-3.2586,-3.2567,-3.2664,-3.2645,-3.261,-3.2552,-3.2654,-3.2694,-3.2711,-3.2493,-3.2492,-3.249,-3.2489,0,0,-3.2438,-3.2454,-3.2471,-3.2485,-3.2501,-3.2535,-3.2588,-3.2622,-3.2646,-3.2666,-3.2711,-3.2764,-3.2732,-3.2749,-3.2732,-3.2772,-3.2872,-3.2731,-3.2731,-3.2759,-3.298,-3.3009,-3.3028,-3.2851,-3.2854,-3.2857,-3.298,0,-3.2555,-3.2649,-3.263,-3.2722,-3.2763,-3.2722,-3.2769,-3.2784,-3.2782,-3.2816,-3.2813,-3.2852,-3.2805,-3.2815,-3.2854,-3.2852,-3.2916,-3.2842,-3.2894,-3.2896,-3.2893,-3.3049,-3.3078,-3.3194,-3.2995,-3.2998,-3.3,0,-3.2705,-3.2732,-3.2828,-3.2839,-3.2856,-3.2899,-3.2929,-3.2962,-3.2979,-3.2974,-3.2995,-3.297,-3.3023,-3.2965,-3.3039,-3.2989,-3.3009,-3.3011,-3.3015,-3.302,-3.2955,-3.306,-3.323,-3.3248,-3.3024,-3.3022,-3.302,0,-3.2816,-3.2877,-3.2942,-3.2955,-3.2969,-3.3,-3.3008,-3.3021,-3.3043,-3.3069,-3.3084,-3.3115,-3.3133,-3.3158,-3.3143,-3.3101,-3.3221,-3.316,-3.3219,-3.322,-3.3247,-3.3246,-3.3424,-3.3257,-3.3257,-3.3257,-3.3256,0,-3.295,-3.3011,-3.2993,-3.3034,-3.3101,-3.3079,-3.3146,-3.3148,-3.3161,-3.3201,-3.3167,-3.3205,-3.3182,-3.3219,-3.3207,-3.3271,-3.3279,-3.3277,-3.3274,-3.3281,-3.3282,-3.3295,-3.3287,-3.3261,-3.326,-3.3259,-3.3259,0,-3.3086,-3.3077,-3.3146,-3.3154,-3.3158,-3.3207,-3.3214,-3.3253,-3.3248,-3.3299,-3.331,-3.3303,-3.3344,-3.3332,-3.3376,-3.3368,-3.345,-3.3435,-3.3445,-3.3442,-3.3502,-3.3498,-3.3697,-3.3723,-3.3538,-3.3539,-3.3541,0,-3.3173,-3.3219,-3.3233,-3.3259,-3.3269,-3.3309,-3.3332,-3.3312,-3.3338,-3.3361,-3.3397,-3.3435,-3.3466,-3.3534,-3.3533,-3.3567,-3.3554,-3.3621,-3.3559,-3.3566,-3.3557,-3.3555,-3.356,-3.3634,-3.3636,-3.3638,-3.3639,0,-3.3329,-3.3322,-3.3357,-3.3391,-3.3419,-3.3444,-3.3466,-3.3489,-3.3471,-3.3501,-3.3544,-3.3567,-3.3614,-3.3653,-3.3685,-3.3692,-3.3664,-3.3659,-3.3675,-3.3684,-3.3688,-3.3688,-3.3481,-3.3655,-3.3653,-3.3652,-3.3651,-3.3651,-3.3444,-3.3484,-3.3501,-3.3541,-3.3556,-3.3577,-3.3614,-3.3615,-3.365,-3.3687,-3.3673,-3.3723,-3.3739,-3.3779,-3.379,-3.3829,-3.3803,-3.3825,-3.3831,-3.3837,-3.3846,-3.3681,-3.3834,-3.3834,-3.3833,-3.3833,-3.3832,0,-3.3599,-3.3609,-3.3646,-3.3679,-3.3711,-3.3681,-3.3704,-3.3733,-3.3778,-3.3795,-3.3827,-3.3877,-3.3915,-3.3917,-3.3953,-3.3984,-3.3972,-3.3994,-3.3992,-3.3995,-3.3866,-3.385,-3.4003,-3.4003,-3.4003,-3.4003,-3.4003,-3.4003,-3.3684,-3.3751,-3.3746,-3.382,-3.3828,-3.3878,-3.3894,-3.3914,-3.3928,-3.3986,-3.4018,-3.4019,-3.4031,-3.4068,-3.4102,-3.4102,-3.4117,-3.4145,-3.414,-3.402,-3.4003,-3.3987,-3.3972,-3.4148,-3.4148,-3.4265,-3.4266,-3.4267]},{"header":{"parameterUnit":"m.s-1","parameterCategory":1,"la1":30.2991,"la2":30.254,"lo1":-89.0895,"lo2":-89.0444,"dy":0.0017,"dx":0.0017,"nx":28,"ny":28,"refTime":"2024-10-01T21:00:00:Z","depth":0,"parameterNumber":3,"parameterNumberName":"V-component_of_WINDS"},"data":[0,0,0,0,0,0,0,0,0,0,0,0,0,0,0,0,0,0,0,0,0,0,0,0,0,0,0,0,0,0,0,0,0,0,0,0,0,0,0,0,0,0,0,0,0,0,0,0,0,0,0,0,0,0,0,0,0,0,-1.6051,-1.605,0,-1.6018,-1.6018,-1.6018,-1.598,-1.5979,-1.5978,-1.5978,-1.5945,-1.5945,-1.5945,0,0,0,0,0,0,0,0,0,0,0,0,0,-1.6078,-1.6078,-1.6051,-1.605,-1.605,-1.6019,-1.6018,-1.6018,-1.598,-1.5979,-1.5978,-1.5978,-1.5945,-1.5945,-1.5945,0,0,0,0,0,0,0,0,0,0,0,0,0,-1.6058,-1.6078,-1.6051,-1.6027,-1.6025,-1.6019,-1.6018,-1.6018,-1.598,-1.5979,-1.5978,-1.5977,-1.5946,-1.5945,-1.5945,-1.5959,0,0,-1.5943,-1.5943,0,0,0,0,0,0,0,0,-1.6059,-1.6057,-1.6031,-1.6029,-1.6026,-1.6002,-1.6016,-1.5998,-1.598,-1.5997,-1.5978,-1.5977,-1.5965,-1.5963,-1.5959,-1.5958,-1.5956,-1.5943,-1.5943,-1.5943,-1.5942,0,0,0,0,0,0,0,-1.6061,-1.6058,-1.6038,-1.6031,-1.6028,-1.6018,-1.6014,-1.6012,-1.5986,-1.5995,-1.5993,-1.5989,-1.5963,-1.5959,-1.5958,-1.5956,-1.5943,-1.5943,-1.5942,-1.5942,-1.5963,-1.5964,0,0,0,0,0,0,-1.6066,-1.606,-1.6039,-1.6037,-1.6041,-1.6018,-1.6014,-1.6011,-1.5986,-1.5982,-1.599,-1.5988,-1.5961,-1.5958,-1.5956,-1.597,-1.5943,-1.5942,-1.5942,-1.5962,-1.5963,-1.5964,0,0,0,0,0,0,-1.6066,-1.6064,-1.604,-1.6048,-1.6044,-1.6018,-1.6015,-1.6011,-1.6006,-1.5982,-1.5977,-1.5991,-1.596,-1.5957,-1.5958,-1.5969,-1.5942,-1.5941,-1.5961,-1.5962,-1.5963,-1.6,0,0,0,0,0,0,-1.6067,-1.6065,-1.6071,-1.6048,-1.6043,-1.6043,-1.6016,-1.6011,-1.6006,-1.6002,-1.5981,-1.5977,-1.5959,-1.5959,-1.5958,-1.5968,-1.5941,-1.596,-1.5962,-1.5963,-1.5998,-1.6002,-1.6006,0,0,0,0,0,-1.6069,-1.6083,-1.6071,-1.6069,-1.605,-1.6044,-1.6041,-1.602,-1.6007,-1.6012,-1.5996,-1.5978,-1.5968,-1.596,-1.5958,-1.5968,-1.5959,-1.5961,-1.5963,-1.5996,-1.6001,-1.6006,0,0,0,0,0,0,-1.6108,-1.6079,-1.6066,-1.6073,-1.6061,-1.6038,-1.6044,-1.6027,-1.6019,-1.6016,-1.5989,-1.5985,-1.5989,-1.5978,-1.597,-1.5979,-1.5961,-1.5962,-1.5986,-1.5991,-1.5996,-1.5998,-1.5941,0,0,0,0,0,-1.6117,-1.6115,-1.609,-1.6098,-1.6093,-1.6069,-1.6066,-1.605,-1.6037,-1.6031,-1.6016,-1.6003,-1.5997,-1.5994,-1.5987,-1.5996,-1.599,-1.6001,-1.6006,-1.6009,-1.6011,-1.6013,-1.6018,-1.597,-1.597,-1.597,0,0,-1.6137,-1.6121,-1.6121,-1.6106,-1.6095,-1.6092,-1.6065,-1.6064,-1.6062,-1.6031,-1.6031,-1.6019,-1.6003,-1.6008,-1.6009,-1.5999,-1.6023,-1.6012,-1.6015,-1.6014,-1.6016,-1.602,-1.6024,-1.5971,-1.5971,-1.5971,0,0,-1.6171,-1.6159,-1.6164,-1.6153,-1.6136,-1.612,-1.6121,-1.6099,-1.609,-1.6089,-1.6066,-1.6062,-1.6053,-1.6042,-1.6035,-1.6063,-1.6045,-1.6061,-1.6084,-1.6086,-1.609,-1.6093,-1.6102,-1.6105,-1.6063,-1.6063,-1.6063,0,-1.6197,-1.6193,-1.6169,-1.6169,-1.6162,-1.6134,-1.6138,-1.6128,-1.611,-1.6106,-1.6095,-1.6081,-1.6069,-1.6069,-1.6076,-1.6072,-1.6071,-1.6064,-1.6091,-1.6094,-1.6097,-1.6105,-1.6108,-1.6065,-1.6065,-1.6065,-1.6064,0,-1.6225,-1.6222,-1.6228,-1.6211,-1.6205,-1.6207,-1.6183,-1.618,-1.6164,-1.6149,-1.6148,-1.6131,-1.612,-1.6119,-1.6104,-1.6117,-1.6111,-1.6096,-1.6077,-1.6104,-1.6111,-1.6114,-1.6068,-1.6067,-1.6067,-1.6066,0,0,-1.6285,-1.6252,-1.6255,-1.6246,-1.6224,-1.6221,-1.6221,-1.6209,-1.6207,-1.6194,-1.6193,-1.6185,-1.617,-1.6162,-1.6146,-1.6148,-1.6169,-1.6132,-1.6131,-1.6139,-1.6181,-1.6192,-1.6196,-1.6157,-1.6158,-1.6158,-1.6182,0,-1.6314,-1.6313,-1.6291,-1.6295,-1.6291,-1.6263,-1.6263,-1.6249,-1.6235,-1.6229,-1.6212,-1.6206,-1.6188,-1.6183,-1.6184,-1.6167,-1.6177,-1.6165,-1.6155,-1.6155,-1.616,-1.62,-1.6212,-1.6235,-1.6185,-1.6185,-1.6185,0,-1.6349,-1.6338,-1.6342,-1.6319,-1.6316,-1.6317,-1.6303,-1.6298,-1.6281,-1.627,-1.6261,-1.6241,-1.6239,-1.622,-1.6216,-1.6208,-1.6202,-1.6193,-1.6193,-1.6192,-1.6172,-1.6198,-1.6242,-1.6246,-1.619,-1.6189,-1.6189,0,-1.6391,-1.6377,-1.6377,-1.637,-1.6343,-1.6344,-1.6332,-1.6315,-1.6308,-1.6296,-1.6292,-1.628,-1.6273,-1.6264,-1.6241,-1.623,-1.6239,-1.6219,-1.6229,-1.6229,-1.6232,-1.6232,-1.6275,-1.623,-1.623,-1.623,-1.623,0,-1.6426,-1.6429,-1.6395,-1.6395,-1.6398,-1.6372,-1.6375,-1.636,-1.6344,-1.6341,-1.6316,-1.6313,-1.6283,-1.6277,-1.6259,-1.6257,-1.6255,-1.6245,-1.624,-1.6247,-1.6248,-1.6243,-1.6241,-1.623,-1.623,-1.623,-1.623,0,-1.6473,-1.645,-1.6448,-1.6422,-1.6416,-1.6418,-1.6396,-1.6394,-1.6377,-1.6373,-1.637,-1.6343,-1.6334,-1.631,-1.6295,-1.6283,-1.6286,-1.6277,-1.6291,-1.6288,-1.6299,-1.6298,-1.634,-1.6343,-1.6297,-1.6297,-1.6298,0,-1.6497,-1.6499,-1.6472,-1.6468,-1.6457,-1.6451,-1.6443,-1.6417,-1.6411,-1.6391,-1.6391,-1.638,-1.6369,-1.6355,-1.6334,-1.6322,-1.6312,-1.6328,-1.631,-1.6317,-1.6311,-1.6311,-1.6311,-1.6332,-1.6332,-1.6333,-1.6333,0,-1.6542,-1.653,-1.6521,-1.6507,-1.6499,-1.6488,-1.6474,-1.6472,-1.6442,-1.6436,-1.6426,-1.6418,-1.6401,-1.6389,-1.6373,-1.6361,-1.6342,-1.6339,-1.634,-1.6347,-1.6355,-1.635,-1.6301,-1.6338,-1.6338,-1.6337,-1.6337,-1.6337,-1.6577,-1.6577,-1.6557,-1.6548,-1.6535,-1.6522,-1.6519,-1.6501,-1.6492,-1.6476,-1.6461,-1.6452,-1.6433,-1.641,-1.6398,-1.639,-1.6381,-1.6383,-1.6384,-1.6384,-1.6387,-1.6356,-1.6387,-1.6387,-1.6387,-1.6387,-1.6387,0,-1.662,-1.6605,-1.6597,-1.6578,-1.657,-1.6552,-1.6536,-1.6531,-1.6523,-1.6507,-1.6496,-1.6484,-1.6472,-1.6449,-1.6435,-1.6433,-1.6423,-1.643,-1.6429,-1.6426,-1.6397,-1.6397,-1.6437,-1.6437,-1.6437,-1.6437,-1.6437,-1.6437,-1.6641,-1.6639,-1.6624,-1.6615,-1.66,-1.6591,-1.6583,-1.6571,-1.6558,-1.6545,-1.6534,-1.6519,-1.65,-1.6484,-1.6472,-1.6465,-1.6461,-1.647,-1.6461,-1.6434,-1.6429,-1.6424,-1.6424,-1.6469,-1.647,-1.6491,-1.6491,-1.6491]}]]